TimeIST,TemperatureF,Dew PointF,Humidity,Sea Level PressureIn,VisibilityMPH,Wind Direction,Wind SpeedMPH,Gust SpeedMPH,PrecipitationIn,Events,Conditions,WindDirDegrees,DateUTC
12:00 AM,48.2,42.8,82,30.18,6.2,SSE,15.0,-,N/A,,Mostly Cloudy,160,2013-04-20 23:00:00
12:30 AM,48.2,41.0,76,30.15,6.2,SSE,12.7,-,N/A,,Mostly Cloudy,160,2013-04-20 23:30:00
1:00 AM,48,42,74,30.16,16,SSE,13.4,,,,Mostly Cloudy,160,2013-04-21 00:00:00
1:00 AM,48.2,42.8,82,30.15,6.2,SSE,13.8,-,N/A,,Mostly Cloudy,160,2013-04-21 00:00:00
1:30 AM,48.2,42.8,82,30.12,6.2,South,15.0,-,N/A,,Mostly Cloudy,170,2013-04-21 00:30:00
2:00 AM,48.2,42.8,82,30.12,6.2,SSE,13.8,-,N/A,,Mostly Cloudy,160,2013-04-21 01:00:00
2:30 AM,48.2,42.8,82,30.12,6.2,South,9.2,-,N/A,,Mostly Cloudy,180,2013-04-21 01:30:00
3:00 AM,46.4,44.6,93,30.09,6.2,South,9.2,-,N/A,Rain,Light Rain,170,2013-04-21 02:00:00
3:30 AM,48.2,44.6,87,30.09,5.6,SSW,10.4,-,N/A,Rain,Light Rain,200,2013-04-21 02:30:00
4:00 AM,46.4,46.4,100,30.09,3.7,SW,8.1,-,N/A,Rain,Light Rain,220,2013-04-21 03:00:00
4:30 AM,46.4,44.6,93,30.09,5.0,SSW,15.0,-,N/A,Rain,Light Rain,210,2013-04-21 03:30:00
5:00 AM,44.6,42.8,93,30.09,6.2,WSW,11.5,-,N/A,Rain,Light Rain,240,2013-04-21 04:00:00
5:30 AM,44.6,42.8,93,30.06,6.2,SW,10.4,-,N/A,Rain,Light Rain,220,2013-04-21 04:30:00
6:00 AM,44.6,42.8,93,30.06,6.2,SSW,10.4,-,N/A,Rain,Light Rain,210,2013-04-21 05:00:00
6:30 AM,44.6,42.8,93,30.06,6.2,South,9.2,-,N/A,Rain,Light Rain,190,2013-04-21 05:30:00
7:00 AM,44,42,91,30.07,9,South,6.7,,,Rain,Light Rain,190,2013-04-21 06:00:00
7:00 AM,44.6,42.8,93,30.06,6.2,South,6.9,-,N/A,Rain,Light Rain,190,2013-04-21 06:00:00
7:30 AM,44.6,42.8,93,30.04,6.2,SSE,8.1,-,N/A,,Scattered Clouds,160,2013-04-21 06:30:00
8:00 AM,44.6,42.8,93,30.04,6.2,SSE,8.1,-,N/A,,Partly Cloudy,160,2013-04-21 07:00:00
8:30 AM,46.4,42.8,87,30.04,6.2,SSW,8.1,-,N/A,,Partly Cloudy,200,2013-04-21 07:30:00
9:00 AM,48.2,44.6,87,30.04,6.2,SSW,9.2,-,N/A,,Scattered Clouds,210,2013-04-21 08:00:00
9:30 AM,48.2,44.6,87,30.04,6.2,SW,13.8,-,N/A,,Scattered Clouds,230,2013-04-21 08:30:00
10:00 AM,50.0,46.4,87,30.04,6.2,WSW,12.7,-,N/A,,Scattered Clouds,240,2013-04-21 09:00:00
10:30 AM,51.8,44.6,76,30.04,6.2,WSW,15.0,-,N/A,,Mostly Cloudy,240,2013-04-21 09:30:00
11:00 AM,50.0,42.8,76,30.04,6.2,WSW,18.4,-,N/A,Rain,Light Rain Showers,240,2013-04-21 10:00:00
11:30 AM,51.8,44.6,76,30.04,6.2,WSW,20.7,-,N/A,Rain,Light Rain Showers,240,2013-04-21 10:30:00
12:00 PM,51.8,44.6,76,30.04,6.2,SW,19.6,-,N/A,Rain,Light Rain Showers,230,2013-04-21 11:00:00
12:30 PM,48.2,42.8,82,30.04,6.2,West,13.8,26.5,N/A,,Mostly Cloudy,280,2013-04-21 11:30:00
1:00 PM,49,42,70,30.05,16,SW,15.7,,,Rain,Light Rain Showers,230,2013-04-21 12:00:00
1:00 PM,50.0,42.8,76,30.04,6.2,SW,15.0,-,N/A,,Scattered Clouds,230,2013-04-21 12:00:00
1:30 PM,53.6,42.8,67,30.04,6.2,WSW,19.6,-,N/A,,Mostly Cloudy,250,2013-04-21 12:30:00
2:00 PM,51.8,41.0,67,30.04,6.2,West,18.4,-,N/A,,Scattered Clouds,260,2013-04-21 13:00:00
2:30 PM,51.8,41.0,67,30.04,6.2,West,17.3,-,N/A,,Scattered Clouds,270,2013-04-21 13:30:00
3:00 PM,50.0,39.2,66,30.04,6.2,West,19.6,-,N/A,,Scattered Clouds,260,2013-04-21 14:00:00
3:30 PM,51.8,37.4,58,30.04,6.2,West,19.6,-,N/A,,Mostly Cloudy,270,2013-04-21 14:30:00
4:00 PM,51.8,41.0,67,30.04,6.2,West,15.0,-,N/A,,Mostly Cloudy,270,2013-04-21 15:00:00
4:30 PM,51.8,39.2,62,30.04,6.2,West,17.3,-,N/A,,Mostly Cloudy,280,2013-04-21 15:30:00
5:00 PM,51.8,41.0,67,30.01,6.2,West,15.0,-,N/A,,Mostly Cloudy,260,2013-04-21 16:00:00
5:30 PM,51.8,41.0,67,30.01,6.2,WSW,18.4,-,N/A,,Mostly Cloudy,250,2013-04-21 16:30:00
6:00 PM,50.0,42.8,76,30.01,6.2,West,15.0,-,N/A,,Mostly Cloudy,260,2013-04-21 17:00:00
6:30 PM,51.8,42.8,71,30.01,6.2,WSW,16.1,-,N/A,,Mostly Cloudy,240,2013-04-21 17:30:00
7:00 PM,50,41,62,30.03,22,WSW,17.9,,,,Partly Cloudy,250,2013-04-21 18:00:00
7:00 PM,50.0,41.0,71,30.01,6.2,WSW,17.3,-,N/A,,Mostly Cloudy,250,2013-04-21 18:00:00
7:30 PM,50.0,41.0,71,30.01,6.2,WSW,16.1,-,N/A,,Mostly Cloudy,250,2013-04-21 18:30:00
8:00 PM,48.2,42.8,82,30.01,6.2,WSW,16.1,-,N/A,,Mostly Cloudy,250,2013-04-21 19:00:00
8:30 PM,48.2,42.8,82,30.04,6.2,WSW,12.7,-,N/A,,Mostly Cloudy,250,2013-04-21 19:30:00
9:00 PM,48.2,42.8,82,30.04,6.2,WSW,11.5,-,N/A,,Mostly Cloudy,250,2013-04-21 20:00:00
9:30 PM,48.2,42.8,82,30.04,6.2,WSW,10.4,-,N/A,,Mostly Cloudy,250,2013-04-21 20:30:00
10:00 PM,48.2,42.8,82,30.04,6.2,WSW,12.7,-,N/A,,Mostly Cloudy,250,2013-04-21 21:00:00
10:30 PM,48.2,42.8,82,30.04,6.2,WSW,10.4,-,N/A,,Mostly Cloudy,240,2013-04-21 21:30:00
11:00 PM,46.4,42.8,87,30.04,6.2,West,12.7,-,N/A,Rain,Light Rain Showers,260,2013-04-21 22:00:00
11:30 PM,46.4,42.8,87,30.01,6.2,WSW,5.8,-,N/A,,Mostly Cloudy,250,2013-04-21 22:30:00